�������l�o���
Date,Time,MP-1(��Sv/h),MP-2(��Sv/h),MP-3(��Sv/h),MP-4(��Sv/h),MP-5(��Sv/h),MP-6(��Sv/h),MP-7(��Sv/h),MP-8(��Sv/h),����,����(m/s),���J
2021/03/21,00:00,0.639,0.933,0.592,1.175,0.819,0.376,0.658,0.617,�k��,1.7,�L
2021/03/21,00:10,0.638,0.931,0.592,1.174,0.820,0.376,0.657,0.616,�k��,1.4,�L
2021/03/21,00:20,0.637,0.929,0.592,1.176,0.819,0.374,0.655,0.616,�k��,0.9,�L
2021/03/21,00:30,0.636,0.929,0.591,1.172,0.819,0.374,0.655,0.616,�k��,1.5,�L
2021/03/21,00:40,0.636,0.930,0.589,1.172,0.818,0.374,0.657,0.616,�k�k��,1.7,�L
2021/03/21,00:50,0.633,0.929,0.590,1.171,0.817,0.375,0.655,0.615,�k,1.5,�L
2021/03/21,01:00,0.634,0.930,0.589,1.169,0.817,0.373,0.656,0.614,�k,1.1,�L
2021/03/21,01:10,0.634,0.927,0.589,1.170,0.816,0.374,0.655,0.614,�k�k��,0.9,�L
2021/03/21,01:20,0.633,0.929,0.590,1.170,0.815,0.373,0.654,0.616,�k�k��,0.9,�L
2021/03/21,01:30,0.634,0.927,0.590,1.168,0.814,0.373,0.656,0.615,�k�k��,0.6,�L
2021/03/21,01:40,0.632,0.928,0.588,1.168,0.815,0.374,0.656,0.617,�k��,0.8,�L
2021/03/21,01:50,0.631,0.925,0.588,1.168,0.813,0.373,0.656,0.614,-,CALM,�L
2021/03/21,02:00,0.632,0.925,0.588,1.169,0.815,0.372,0.656,0.615,��쐼,0.9,�L
2021/03/21,02:10,0.632,0.926,0.587,1.168,0.813,0.371,0.657,0.615,��쓌,1.7,��
2021/03/21,02:20,0.631,0.925,0.588,1.167,0.811,0.372,0.657,0.615,��,0.6,�L
2021/03/21,02:30,0.630,0.925,0.585,1.168,0.813,0.372,0.656,0.615,��,1.2,�L
2021/03/21,02:40,0.633,0.925,0.585,1.167,0.813,0.371,0.656,0.614,��쓌,1.9,�L
2021/03/21,02:50,0.633,0.924,0.586,1.166,0.812,0.373,0.656,0.615,��쓌,1.7,�L
2021/03/21,03:00,0.631,0.924,0.587,1.166,0.812,0.371,0.655,0.615,��쓌,2.0,�L
2021/03/21,03:10,0.630,0.925,0.587,1.166,0.813,0.372,0.656,0.613,�쓌,1.7,�L
2021/03/21,03:20,0.631,0.924,0.587,1.165,0.812,0.372,0.655,0.614,�쓌,1.2,�L
2021/03/21,03:30,0.631,0.923,0.587,1.164,0.812,0.372,0.654,0.613,��,1.5,�L
2021/03/21,03:40,0.630,0.925,0.587,1.168,0.814,0.372,0.656,0.615,�쓌,1.2,�L
2021/03/21,03:50,0.631,0.923,0.587,1.166,0.813,0.371,0.657,0.614,�쓌,1.7,�L
2021/03/21,04:00,0.631,0.924,0.586,1.165,0.813,0.371,0.656,0.616,��쓌,0.9,�L
2021/03/21,04:10,0.630,0.924,0.588,1.166,0.813,0.373,0.657,0.614,�쓌,1.7,�L
2021/03/21,04:20,0.633,0.925,0.586,1.167,0.813,0.372,0.654,0.614,��쓌,1.7,�L
2021/03/21,04:30,0.632,0.923,0.586,1.166,0.814,0.371,0.656,0.614,��쓌,1.2,�L
2021/03/21,04:40,0.632,0.924,0.588,1.165,0.815,0.373,0.655,0.615,��,1.1,�L
2021/03/21,04:50,0.630,0.925,0.586,1.165,0.811,0.372,0.656,0.614,��쓌,1.2,�L
2021/03/21,05:00,0.629,0.922,0.587,1.167,0.811,0.374,0.654,0.615,�쓌,2.8,�L
2021/03/21,05:10,0.631,0.925,0.586,1.166,0.812,0.372,0.657,0.615,���쓌,2.3,�L
2021/03/21,05:20,0.629,0.922,0.586,1.165,0.810,0.371,0.656,0.615,�쓌,3.2,�L
2021/03/21,05:30,0.630,0.924,0.587,1.166,0.812,0.372,0.656,0.614,�쓌,2.9,�L
2021/03/21,05:40,0.630,0.922,0.587,1.164,0.814,0.372,0.657,0.616,�쓌,1.9,�L
2021/03/21,05:50,0.632,0.923,0.585,1.166,0.813,0.372,0.654,0.617,-,CALM,�L
2021/03/21,06:00,0.630,0.924,0.585,1.165,0.814,0.372,0.656,0.615,���k��,2.2,��
2021/03/21,06:10,0.632,0.924,0.588,1.167,0.814,0.372,0.656,0.614,��쐼,1.2,�L
2021/03/21,06:20,0.632,0.923,0.586,1.166,0.812,0.372,0.656,0.615,�쐼,1.9,��
2021/03/21,06:30,0.630,0.926,0.586,1.165,0.814,0.372,0.654,0.614,���쐼,0.6,�L
2021/03/21,06:40,0.629,0.923,0.587,1.166,0.812,0.371,0.657,0.614,��쓌,1.7,�L
2021/03/21,06:50,0.630,0.925,0.586,1.166,0.814,0.372,0.656,0.616,��쓌,3.3,�L
2021/03/21,07:00,0.632,0.923,0.585,1.166,0.814,0.373,0.657,0.615,��쓌,5.3,�L
2021/03/21,07:10,0.632,0.923,0.587,1.166,0.813,0.373,0.657,0.617,��,6.2,�L
2021/03/21,07:20,0.631,0.923,0.589,1.167,0.813,0.374,0.655,0.616,��,7.6,�L
2021/03/21,07:30,0.632,0.921,0.587,1.166,0.812,0.375,0.657,0.616,��,12.4,�L
2021/03/21,07:40,0.632,0.919,0.586,1.161,0.808,0.375,0.657,0.614,��쐼,11.0,�L
2021/03/21,07:50,0.629,0.916,0.587,1.158,0.805,0.375,0.654,0.614,��,11.3,�L
2021/03/21,08:00,0.630,0.913,0.587,1.157,0.804,0.374,0.654,0.613,��,10.8,�L
2021/03/21,08:10,0.630,0.911,0.589,1.155,0.806,0.375,0.652,0.614,��,13.0,�L
2021/03/21,08:20,0.634,0.914,0.589,1.151,0.804,0.376,0.653,0.613,��,12.7,�L
2021/03/21,08:30,0.631,0.912,0.589,1.151,0.804,0.376,0.653,0.613,��,12.2,�L
2021/03/21,08:40,0.630,0.914,0.591,1.152,0.804,0.377,0.652,0.614,��,11.3,�L
2021/03/21,08:50,0.633,0.911,0.588,1.151,0.802,0.378,0.653,0.611,��,13.8,�L
2021/03/21,09:00,0.634,0.912,0.590,1.150,0.805,0.376,0.654,0.611,��,10.5,�L
2021/03/21,09:10,0.633,0.912,0.588,1.150,0.801,0.376,0.653,0.613,��,11.0,�L
2021/03/21,09:20,0.633,0.911,0.589,1.147,0.802,0.374,0.651,0.611,��,12.4,�L
2021/03/21,09:30,0.633,0.911,0.588,1.147,0.802,0.376,0.652,0.611,��,10.0,�L
2021/03/21,09:40,0.630,0.912,0.587,1.147,0.802,0.373,0.650,0.612,��,10.6,�L
2021/03/21,09:50,0.630,0.910,0.585,1.146,0.801,0.375,0.652,0.611,��,12.7,�L
2021/03/21,10:00,0.628,0.911,0.586,1.147,0.800,0.374,0.653,0.610,��,9.1,�L
2021/03/21,10:10,0.627,0.911,0.585,1.146,0.799,0.373,0.651,0.612,��,10.2,�L
2021/03/21,10:20,0.628,0.908,0.584,1.146,0.799,0.373,0.653,0.609,��,11.3,�L
2021/03/21,10:30,0.628,0.910,0.586,1.146,0.800,0.372,0.654,0.610,��,9.9,�L
2021/03/21,10:40,0.627,0.911,0.583,1.146,0.798,0.374,0.650,0.612,��,11.7,�L
2021/03/21,10:50,0.626,0.907,0.584,1.147,0.798,0.373,0.650,0.610,��,12.7,�L
2021/03/21,11:00,0.624,0.905,0.583,1.147,0.796,0.372,0.651,0.609,��,11.1,�L
2021/03/21,11:10,0.624,0.905,0.580,1.143,0.795,0.373,0.652,0.609,��,11.9,�L
2021/03/21,11:20,0.624,0.903,0.582,1.141,0.794,0.371,0.650,0.610,��,13.1,�L
2021/03/21,11:30,0.623,0.901,0.580,1.140,0.792,0.370,0.648,0.607,��,13.9,�L
2021/03/21,11:40,0.622,0.897,0.579,1.139,0.790,0.371,0.650,0.606,��,15.0,�L
2021/03/21,11:50,0.621,0.900,0.579,1.138,0.789,0.371,0.648,0.608,��,14.6,�L
2021/03/21,12:00,0.619,0.896,0.579,1.135,0.788,0.371,0.647,0.607,��쓌,13.0,�L
2021/03/21,12:10,0.620,0.897,0.579,1.135,0.787,0.370,0.647,0.608,��,14.4,�L
2021/03/21,12:20,0.620,0.897,0.578,1.134,0.787,0.371,0.648,0.608,��,10.3,�L
2021/03/21,12:30,0.619,0.896,0.577,1.131,0.786,0.370,0.648,0.605,��,12.1,�L
2021/03/21,12:40,0.618,0.896,0.577,1.133,0.786,0.369,0.645,0.606,��,10.9,�L
2021/03/21,12:50,0.617,0.894,0.578,1.129,0.786,0.370,0.648,0.605,��,16.1,�L
2021/03/21,13:00,0.617,0.894,0.576,1.128,0.784,0.370,0.645,0.604,��,11.7,�L
2021/03/21,13:10,0.618,0.893,0.576,1.129,0.784,0.371,0.647,0.605,��,12.6,�L
2021/03/21,13:20,0.618,0.895,0.575,1.128,0.784,0.370,0.647,0.603,��,12.9,�L
2021/03/21,13:30,0.618,0.895,0.577,1.129,0.786,0.371,0.647,0.605,��쐼,11.9,�L
2021/03/21,13:40,0.619,0.893,0.577,1.128,0.787,0.371,0.647,0.606,��,13.5,�L
2021/03/21,13:50,0.617,0.894,0.578,1.129,0.784,0.369,0.646,0.606,��,14.3,�L
2021/03/21,14:00,0.619,0.895,0.578,1.128,0.786,0.370,0.646,0.604,��,15.3,�L
2021/03/21,14:10,0.616,0.890,0.577,1.129,0.785,0.370,0.646,0.605,���쓌,9.8,�L
2021/03/21,14:20,0.617,0.891,0.578,1.126,0.784,0.370,0.644,0.604,��,16.1,�L
2021/03/21,14:30,0.615,0.892,0.577,1.123,0.780,0.370,0.644,0.605,��,15.3,�L
2021/03/21,14:40,0.615,0.888,0.574,1.125,0.781,0.369,0.645,0.604,��,17.0,�L
2021/03/21,14:50,0.615,0.890,0.574,1.123,0.778,0.370,0.643,0.601,��,15.6,�L
2021/03/21,15:00,0.613,0.888,0.574,1.120,0.777,0.369,0.644,0.602,��,15.2,�L
2021/03/21,15:10,0.609,0.884,0.573,1.118,0.774,0.367,0.643,0.600,��,12.9,�L
2021/03/21,15:20,0.611,0.886,0.574,1.116,0.774,0.370,0.644,0.601,��,10.5,�L
2021/03/21,15:30,0.614,0.886,0.575,1.117,0.778,0.370,0.645,0.601,��,11.1,�L
2021/03/21,15:40,0.615,0.887,0.574,1.116,0.778,0.371,0.644,0.602,��,12.4,�L
2021/03/21,15:50,0.619,0.888,0.575,1.118,0.779,0.370,0.645,0.602,��,10.0,�L
2021/03/21,16:00,0.616,0.889,0.575,1.119,0.779,0.371,0.644,0.604,��,12.2,�L
2021/03/21,16:10,0.616,0.890,0.575,1.118,0.780,0.370,0.643,0.605,��,14.2,�L
2021/03/21,16:20,0.617,0.887,0.576,1.118,0.778,0.371,0.644,0.602,��,14.6,�L
2021/03/21,16:30,0.614,0.889,0.575,1.116,0.774,0.369,0.643,0.603,��,15.0,�L
2021/03/21,16:40,0.615,0.888,0.572,1.117,0.776,0.369,0.641,0.603,��,16.2,�L
2021/03/21,16:50,0.616,0.888,0.575,1.118,0.777,0.369,0.643,0.602,��,15.7,�L
2021/03/21,17:00,0.616,0.889,0.575,1.117,0.777,0.371,0.645,0.603,��,14.6,�L
2021/03/21,17:10,0.617,0.888,0.574,1.117,0.777,0.368,0.644,0.603,��,14.6,�L
2021/03/21,17:20,0.616,0.887,0.575,1.115,0.777,0.371,0.643,0.602,��,11.8,�L
2021/03/21,17:30,0.616,0.890,0.575,1.117,0.776,0.371,0.643,0.602,��,12.0,�L
2021/03/21,17:40,0.617,0.889,0.576,1.115,0.775,0.371,0.644,0.602,��,9.2,�L
2021/03/21,17:50,0.614,0.888,0.575,1.115,0.776,0.370,0.643,0.602,��,14.2,�L
2021/03/21,18:00,0.616,0.891,0.574,1.114,0.777,0.370,0.641,0.602,��,12.8,�L
2021/03/21,18:10,0.617,0.891,0.574,1.114,0.778,0.368,0.644,0.603,��,10.8,�L
2021/03/21,18:20,0.617,0.889,0.574,1.115,0.779,0.371,0.646,0.602,��,11.9,�L
2021/03/21,18:30,0.616,0.891,0.575,1.116,0.778,0.371,0.644,0.603,��,9.7,�L
2021/03/21,18:40,0.616,0.890,0.575,1.117,0.778,0.369,0.643,0.602,��,13.0,�L
2021/03/21,18:50,0.619,0.892,0.575,1.116,0.780,0.370,0.644,0.605,��,14.7,�L
2021/03/21,19:00,0.618,0.891,0.577,1.115,0.779,0.371,0.644,0.605,��,11.6,�L
2021/03/21,19:10,0.619,0.893,0.578,1.118,0.780,0.370,0.643,0.605,��,14.2,�L
2021/03/21,19:20,0.619,0.892,0.576,1.117,0.779,0.371,0.645,0.606,��,12.4,�L
2021/03/21,19:30,0.619,0.890,0.575,1.117,0.782,0.371,0.644,0.604,��쐼,10.2,�L
2021/03/21,19:40,0.618,0.894,0.576,1.119,0.782,0.370,0.645,0.603,���쐼,3.9,�L
2021/03/21,19:50,0.614,0.884,0.573,1.117,0.776,0.371,0.645,0.604,��,5.1,�L
2021/03/21,20:00,0.612,0.882,0.571,1.112,0.771,0.371,0.642,0.602,���k��,8.5,�L
2021/03/21,20:10,0.609,0.877,0.573,1.108,0.768,0.372,0.639,0.600,��,5.2,�L
2021/03/21,20:20,0.612,0.878,0.573,1.103,0.771,0.371,0.639,0.600,��,4.2,�L
2021/03/21,20:30,0.615,0.881,0.576,1.109,0.772,0.371,0.641,0.600,��,5.8,�L
2021/03/21,20:40,0.617,0.883,0.576,1.110,0.774,0.373,0.640,0.599,���k��,7.7,�L
2021/03/21,20:50,0.615,0.882,0.576,1.106,0.771,0.372,0.637,0.601,��,7.7,�L
2021/03/21,21:00,0.613,0.880,0.578,1.108,0.770,0.373,0.637,0.601,���k��,6.6,�L
2021/03/21,21:10,0.616,0.882,0.576,1.109,0.771,0.372,0.638,0.600,�k��,6.4,�L
2021/03/21,21:20,0.611,0.875,0.576,1.105,0.766,0.371,0.639,0.601,�k��,6.1,�L
2021/03/21,21:30,0.614,0.881,0.575,1.106,0.770,0.372,0.640,0.601,���k��,6.8,�L
2021/03/21,21:40,0.613,0.877,0.577,1.104,0.767,0.372,0.638,0.600,�k��,12.4,�L
2021/03/21,21:50,0.609,0.873,0.574,1.095,0.764,0.370,0.636,0.598,��,4.5,�L
2021/03/21,22:00,0.608,0.873,0.575,1.094,0.761,0.370,0.638,0.598,�k��,7.8,�L
2021/03/21,22:10,0.612,0.877,0.576,1.097,0.762,0.371,0.638,0.601,�k��,8.2,�L
2021/03/21,22:20,0.612,0.876,0.578,1.097,0.761,0.370,0.637,0.599,�k�k��,5.2,�L
2021/03/21,22:30,0.614,0.876,0.578,1.096,0.760,0.371,0.638,0.598,�k��,4.0,�L
2021/03/21,22:40,0.613,0.875,0.577,1.095,0.760,0.372,0.635,0.601,�k��,5.8,�L
2021/03/21,22:50,0.616,0.879,0.577,1.098,0.763,0.374,0.640,0.601,�k��,7.1,�L
2021/03/21,23:00,0.614,0.876,0.576,1.093,0.761,0.372,0.639,0.599,��,1.2,�L
2021/03/21,23:10,0.607,0.872,0.573,1.087,0.755,0.369,0.635,0.599,�k��,4.6,�L
2021/03/21,23:20,0.613,0.879,0.576,1.094,0.760,0.372,0.636,0.601,�k�k��,4.5,�L
2021/03/21,23:30,0.616,0.882,0.576,1.097,0.763,0.374,0.635,0.603,�k�k��,1.4,�L
2021/03/21,23:40,0.616,0.884,0.575,1.096,0.766,0.372,0.637,0.604,�k,1.5,�L
2021/03/21,23:50,0.615,0.884,0.576,1.099,0.766,0.372,0.639,0.603,�k�k��,3.6,�L
